Tracking 31027 objects as of 19-Jul-2025
HD Live streaming from Space Station
objects crossing your sky now

SL-14 DEB

Track SL-14 DEB now!
10-day predictions


NORAD ID: 45294
Int'l Code: 1991-056AG
Perigee: 1,179.3 km
Apogee: 1,197.5 km
Inclination: 82.6 °
Period: 109.0 minutes
Semi major axis: 7559 km
RCS: Unknown
Launch date: August 15, 1991
Source: Commonwealth of Independent States (former USSR) (CIS)
Launch site: PLESETSK MISSILE AND SPACE COMPLEX (PKMTR)

Note: This is SATELLITE DEBRIS
Your satellite tracking list
COSMOS 1408 DEB
Track 1 satellite(s)




NASA's NSSDC Master Catalog

Two Line Element Set (TLE):
1 45294U 91056AG  25198.91002746  .00000783  00000-0  18898-2 0  9993
2 45294  82.5685  13.6956 0012013 227.0962 132.9156 13.20912799259629
Source of the keplerian elements: AFSPC